DW8228 Nauvo FI current weather conditions

sailwx.info

Wind from 226 at 19 knots gusting 27

Air temperature 5.0° C
Dewpoint 3.7° C

Last reported at 2019-Dec-11 15:45 UTC.
Time now 2019-Dec-11 16:28 UTC

Location: N 60°05' E 022°01'.
View on Google Maps.

See reports from other nearby stations

  
Tides and Currents Weather Stations Pressure Air Temp Water Temp Dewpoint Dewpoint Depression Visibility Wind Speed Wind Dir Waves Ship Positions
date/time (UTC)wind fromknots sea level pressurealtimeterstation pressurevisibilityair tempwater tempwave heightnotes
2019-Dec-11 15:45 226 19 gusting 27 5.0
2019-Dec-11 15:30 214 21 gusting 27 5.0
2019-Dec-11 15:15 219 18 gusting 28 5.0
2019-Dec-11 15:00 244 22 gusting 30 5.0
2019-Dec-11 14:45 237 20 gusting 30 5.0
2019-Dec-11 14:32 221 24 gusting 33 5.0
2019-Dec-11 14:17 231 22 gusting 33 5.0
2019-Dec-11 14:02 211 25 gusting 33 5.0
2019-Dec-11 13:46 235 22 gusting 31 5.0
2019-Dec-11 13:31 237 23 gusting 33 5.0
2019-Dec-11 13:17 226 20 gusting 32 5.0
2019-Dec-11 13:00 228 23 gusting 33 5.0
2019-Dec-11 12:47 218 23 gusting 34 4.4
2019-Dec-11 12:32 214 23 gusting 34 5.0
2019-Dec-11 12:16 217 19 gusting 29 5.0
2019-Dec-11 12:03 214 19 gusting 30 5.0
2019-Dec-11 11:48 218 17 gusting 30 5.0
2019-Dec-11 11:32 237 20 gusting 30 5.0
2019-Dec-11 11:16 199 19 gusting 33 4.4
2019-Dec-11 11:02 199 18 gusting 31 4.4
2019-Dec-11 10:47 214 19 gusting 35 5.0
2019-Dec-11 10:33 219 17 gusting 34 5.0
2019-Dec-11 10:19 236 19 gusting 33 5.0
2019-Dec-11 10:01 198 21 gusting 32 5.0
2019-Dec-11 09:47 214 19 gusting 34 5.0
2019-Dec-11 09:32 208 15 gusting 31 5.6
2019-Dec-11 09:18 202 19 gusting 34 5.6
2019-Dec-11 09:01 237 19 gusting 31 5.0
2019-Dec-11 08:46 211 18 gusting 31 5.0
2019-Dec-11 08:31 213 19 gusting 32 5.0
2019-Dec-11 08:17 212 18 gusting 32 5.0
2019-Dec-11 08:02 197 19 gusting 31 5.0
2019-Dec-11 07:47 254 18 gusting 31 5.0
2019-Dec-11 07:31 212 19 gusting 32 4.4
2019-Dec-11 07:15 189 21 gusting 32 4.4
2019-Dec-11 07:01 214 16 gusting 32 4.4
2019-Dec-11 06:47 231 19 gusting 31 4.4
2019-Dec-11 06:31 217 17 gusting 30 4.4
2019-Dec-11 06:16 194 19 gusting 32 4.4
2019-Dec-11 06:00 224 17 gusting 33 4.4
2019-Dec-11 05:45 185 15 gusting 29 4.4
2019-Dec-11 05:30 212 17 gusting 27 4.4
2019-Dec-11 05:15 218 16 gusting 28 4.4
2019-Dec-11 05:00 205 15 gusting 29 3.9
2019-Dec-11 04:45 208 15 gusting 26 3.9
2019-Dec-11 04:17 205 14 gusting 25 3.9
2019-Dec-11 04:02 218 15 gusting 28 3.9
2019-Dec-11 03:47 190 13 gusting 26 3.9
2019-Dec-11 03:32 206 13 gusting 22 3.3
2019-Dec-11 03:18 226 13 gusting 23 3.3
2019-Dec-11 03:04 193 13 gusting 23 3.3
2019-Dec-11 02:34 239 12 gusting 22 3.3
2019-Dec-11 02:17 226 10 gusting 19 3.3
2019-Dec-11 02:02 229 12 gusting 25 2.8
2019-Dec-11 01:47 229 13 gusting 21 2.8
2019-Dec-11 01:32 239 13 gusting 20 2.8
2019-Dec-11 01:17 175 13 gusting 21 2.8
2019-Dec-11 01:03 215 13 gusting 21 2.8
2019-Dec-11 00:46 216 11 gusting 21 2.8
2019-Dec-11 00:30 226 11 gusting 20 2.8
2019-Dec-11 00:15 185 11 gusting 19 2.8
2019-Dec-11 00:00 247 9 gusting 19 2.2
2019-Dec-10 23:46 223 9 gusting 15 2.2
2019-Dec-10 23:31 199 10 gusting 16 2.2
2019-Dec-10 23:16 197 11 gusting 18 1.7
2019-Dec-10 23:00 207 8 gusting 15 1.7
2019-Dec-10 22:45 192 7 gusting 13 1.1
2019-Dec-10 22:31 232 8 gusting 13 1.1
2019-Dec-10 22:15 199 7 gusting 16 0.6
2019-Dec-10 22:00 185 6 gusting 13 0.6
2019-Dec-10 21:48 191 6 gusting 13 0.6
2019-Dec-10 21:32 162 6 gusting 11 -0.0
2019-Dec-10 21:17 160 6 gusting 11 -0.0
2019-Dec-10 21:04 199 4 gusting 11 -0.0
2019-Dec-10 20:48 191 6 gusting 11 -0.6
2019-Dec-10 20:31 199 4 gusting 9 -0.6
2019-Dec-10 20:17 185 4 gusting 9 -0.6
2019-Dec-10 20:04 192 4 gusting 9 -1.1
2019-Dec-10 19:46 175 3 gusting 7 -1.1
2019-Dec-10 19:32 185 2 gusting 7 -1.1
2019-Dec-10 19:18 166 2 gusting 6 -1.7
2019-Dec-10 19:03 189 0 gusting 3 -2.2
2019-Dec-10 18:49 145 -2.2
2019-Dec-10 18:32 143 0 gusting 3 -2.2
2019-Dec-10 18:17 133 -2.8
2019-Dec-10 18:02 125 -2.8
2019-Dec-10 17:48 106 -2.8
2019-Dec-10 17:32 105 -2.2
2019-Dec-10 17:16 104 -2.2
2019-Dec-10 17:00 074 -2.2
2019-Dec-10 16:46 068 -2.2
2019-Dec-10 16:32 057 -2.2
2019-Dec-10 16:15 054 -2.2
2019-Dec-10 16:00 054 -2.2
2019-Dec-10 15:46 061 -2.2
2019-Dec-10 15:30 060 -1.7
2019-Dec-10 15:15 060 0 gusting 3 -1.7
2019-Dec-10 15:00 052 0 gusting 6 -1.7
2019-Dec-10 14:45 049 -1.7
2019-Dec-10 14:30 060 -1.7
2019-Dec-10 14:16 029 -1.7
2019-Dec-10 14:00 029 -1.1
2019-Dec-10 13:33 047 -0.6
2019-Dec-10 13:18 044 0 gusting 4 -0.6
2019-Dec-10 13:02 028 0 gusting 4 -0.6
2019-Dec-10 12:46 054 -0.6
2019-Dec-10 12:31 051 0 gusting 4 -0.0
2019-Dec-10 12:16 020 1 gusting 7 -0.0
2019-Dec-10 12:01 013 2 gusting 8 0.6
2019-Dec-10 11:46 002 1.1
2019-Dec-10 11:33 330 0 gusting 6 1.1
2019-Dec-10 11:15 357 1.1
2019-Dec-10 11:01 042 0 gusting 6 1.1
2019-Dec-10 10:45 327 1 gusting 7 1.1
2019-Dec-10 10:31 004 0 gusting 6 0.6
2019-Dec-10 10:16 331 0 gusting 6 0.6
2019-Dec-10 10:01 021 0 gusting 4 0.6
2019-Dec-10 09:45 007 2 gusting 6 0.6
2019-Dec-10 09:30 358 2 gusting 8 0.6
2019-Dec-10 09:15 333 1 gusting 8 0.6
2019-Dec-10 09:01 037 0 gusting 6 0.6
2019-Dec-10 08:45 017 2 gusting 8 -0.0
2019-Dec-10 08:30 032 1 gusting 6 -0.0
2019-Dec-10 08:15 010 0 gusting 6 -0.6
2019-Dec-10 08:00 353 -0.6
2019-Dec-10 07:45 360 1 gusting 6 -0.6
2019-Dec-10 07:31 039 1 gusting 6 -0.6
2019-Dec-10 07:17 338 0 gusting 7 -0.6
2019-Dec-10 07:02 360 2 gusting 7 -0.6
2019-Dec-10 06:46 343 1 gusting 6 -0.6
2019-Dec-10 06:31 349 0 gusting 7 -0.6
2019-Dec-10 06:16 017 2 gusting 9 -0.6
2019-Dec-10 06:01 319 2 gusting 9 -0.6
2019-Dec-10 05:46 044 4 gusting 10 -0.6
2019-Dec-10 05:31 346 3 gusting 13 -0.0
2019-Dec-10 05:16 330 2 gusting 7 -0.0
2019-Dec-10 05:01 031 4 gusting 10 -0.0
2019-Dec-10 04:45 333 3 gusting 13 -0.0
2019-Dec-10 04:31 359 3 gusting 11 -0.0
2019-Dec-10 04:16 020 3 gusting 10 -0.0
2019-Dec-10 04:00 297 1 gusting 8 -0.0
2019-Dec-10 03:45 357 3 gusting 11 -0.0
2019-Dec-10 03:30 355 3 gusting 9 -0.0
2019-Dec-10 03:15 314 4 gusting 11 -0.0
2019-Dec-10 03:00 062 4 gusting 12 -0.0
2019-Dec-10 02:45 336 6 gusting 13 -0.0
2019-Dec-10 02:33 066 2 gusting 13 -0.0
2019-Dec-10 02:16 018 1 gusting 8 -0.0
2019-Dec-10 02:01 323 3 gusting 12 -0.0
2019-Dec-10 01:46 006 4 gusting 16 -0.0
2019-Dec-10 01:31 030 3 gusting 15 -0.0
2019-Dec-10 01:17 278 1 gusting 9 -0.0
2019-Dec-10 01:01 012 2 gusting 7 -0.0
2019-Dec-10 00:45 025 0 gusting 9 -0.0
2019-Dec-10 00:31 129 1 gusting 7 0.6
2019-Dec-10 00:15 009 0 gusting 10 0.6
2019-Dec-10 00:00 029 3 gusting 12 0.6
2019-Dec-09 23:45 012 4 gusting 12 0.6
2019-Dec-09 23:30 154 1 gusting 9 0.6
2019-Dec-09 23:15 035 2 gusting 9 0.6
2019-Dec-09 23:01 341 4 gusting 18 0.6
2019-Dec-09 22:45 060 3 gusting 9 1.1
2019-Dec-09 22:30 341 2 gusting 9 1.1
2019-Dec-09 22:15 355 1 gusting 8 1.1
2019-Dec-09 22:00 023 3 gusting 10 1.1
2019-Dec-09 21:46 056 3 gusting 10 1.1
2019-Dec-09 21:31 025 5 gusting 12 1.1
2019-Dec-09 21:16 037 5 gusting 9 1.1
2019-Dec-09 21:02 036 1 gusting 9 1.1
2019-Dec-09 20:46 030 1 gusting 8 1.7
2019-Dec-09 20:31 353 0 gusting 6 1.7
2019-Dec-09 20:16 052 2 gusting 9 2.2
2019-Dec-09 20:01 056 0 gusting 9 2.2
2019-Dec-09 19:46 001 0 gusting 6 2.8
2019-Dec-09 19:31 058 2.8
2019-Dec-09 19:15 056 2.8
2019-Dec-09 19:00 036 0 gusting 5 3.3
2019-Dec-09 18:45 353 2 gusting 6 3.3
2019-Dec-09 18:30 004 3.9
2019-Dec-09 18:15 306 0 gusting 6 3.9
2019-Dec-09 18:00 320 1 gusting 7 4.4
2019-Dec-09 17:45 295 5 gusting 8 4.4
2019-Dec-09 17:30 289 3 gusting 8 5.0
2019-Dec-09 17:15 284 4 gusting 11 5.6
2019-Dec-09 17:01 277 7 gusting 16 6.1
2019-Dec-09 16:47 242 7 gusting 20 6.1
2019-Dec-09 16:31 214 9 gusting 19 6.1
2019-Dec-09 16:16 232 9 gusting 17 6.1
2019-Dec-09 16:02 238 9 gusting 19 6.1